Regional Weather Roundup
Issued by NWS Newport/Morehead, NC

Current Version | Previous Version | Text Only | Print | Product List | Glossary On
Versions: 1 2 3 4 5 6 7 8 9 10 11 12 13 14 15 16 17 18 19 20 21 22 23 24 25 26 27 28 29 30 31 32 33 34 35 36 37 38 39 40 41 42 43 44 45 46 47 48 49 50
598
ASUS42 KMHX 260925
RWRMHX
WEATHER ROUNDUP FOR EASTERN NORTH CAROLINA
NATIONAL WEATHER SERVICE NEWPORT/MOREHEAD CITY NC
500 AM EDT FRI MAY 26 2017

NOTE: "FAIR" INDICATES FEW OR NO CLOUDS BELOW 12,000 FEET
WITH NO SIGNIFICANT WEATHER AND/OR OBSTRUCTIONS TO VISIBILITY

NCZ015>017-031-032-045>047-102-103-261000-
NORTH COAST

CITY           SKY/WX    TMP DP  RH WIND       PRES   REMARKS
EDENTON        CLEAR     67  56  69 W10G18    29.77R
ELIZABETH CITY CLEAR     63  56  78 SW15      29.74R
KITTY HAWK     SUNNY     66  55  66 W7G25     29.74R
MANTEO         CLEAR     65  56  71 W15G24    29.77R

$$

NCZ045>047-081-094-103-104-261000-
CENTRAL COAST

CITY           SKY/WX    TMP DP  RH WIND       PRES   REMARKS
FRISCO         CLEAR     70  56  61 W15G26    29.80R

$$

NCZ095-097-098-100-101-261000-
SOUTHERN COAST

CITY           SKY/WX    TMP DP  RH WIND       PRES   REMARKS
BEAUFORT       CLEAR     68  56  65 W17G23    29.84R
CEDAR ISLAND   NOT AVBL
JACKSONVILLE   CLEAR     63  55  75 W10       29.85R
PINEY ISLAND   SUNNY    N/A N/A N/A W22G29    29.82R
WILMINGTON     PTCLDY    64  54  69 W10       29.88R


$$

NCZ011>013-027>030-043-044-078>080-089-090>093-098-261000-
COASTAL PLAIN

CITY           SKY/WX    TMP DP  RH WIND       PRES   REMARKS
AHOSKIE          N/A     60  54  79 CALM      29.77R
CLINTON        CLEAR     61  55  82 SW5       29.87R
ELIZABETHTOWN  CLEAR     63  54  72 SW7       29.88R
GOLDSBORO      CLEAR     62  58  86 SW8       29.82R
GREENVILLE     CLEAR     63  54  72 W10G16    29.83R
HAVELOCK       CLEAR     66  53  63 W14       29.85R
KENANSVILLE    CLEAR     61  54  77 SW9       29.86R
KINSTON        CLEAR     62  54  74 CALM      29.84R
NEW BERN       CLEAR     63  55  75 SW9       29.84R
RICHLANDS      CLEAR     61  55  81 SW8       29.86R
ROCKY MOUNT    CLEAR     62  55  77 SW9       29.80R
WASHINGTON     CLEAR     63  54  73 SW12G17   29.81R
WHITEVILLE     CLEAR     63  53  71 SW3       29.89R

$$

AMZ130-135-150-152-154-156-158-170-250-252-270-ANZ085-086-088-633-658-670-261000-
MARINE OBSERVATIONS

STATION/POSITION TIME  TEMP    WIND        PRES    WAVE   SWELL
                       AIR SEA DIR/SP/G            HT/PER HT/PER
                 (UTC) (F)     (DEG/KT/KT) (MB)    (FT/S) (FT/S)
CHESAPEAKE LIGHT NOT AVBL
64 E VA BEACH    0850   65 63  250/ 17/ 19 1005.9    7/ 8   3/ 8
DUCK             0854   68 62  250/ 21/ 27 1006.6
2 E DUCK         0900      62                N/A     3/ 9
OREGON INLET     0848          240/ 22/ 28   N/A
13E OREGON INLT  0848      65                N/A     6/ 8   3/ 8
HATTERAS CG      0854   70 73  260/ 18/ 27 1008.7
DIAMOND BUOY     0850   73 78  270/ 25/ 29 1008.4   10/ 8
CAPE LOOKOUT     0900   70     270/ 22/ 29 1010.2
BEAUFORT LAB     0854   69 70  280/  4/ 14 1009.8
30 SE NEW RVR IN 0908   72 75  280/ 23/ 29 1011.3
30 SE NEW RVR IN 0913      75                N/A     9/ 8
27 SE WRIGHTSVLE 0908   72 75  250/ 21/ 29 1011.1
5 SE WRIGHTSVLE  0908   69 73  260/ 19/ 29 1011.5
225 S CAPE HAT   0850   76 76  270/ 17/ 21 1013.5    9/ 8   3/ 9
41 SE CHARLESTON 0900   74 74  280/ 16/ 19 1013.4

$$




USA.gov is the U.S. government's official web portal to all federal, state and local government web resources and services.